Wetbulb
53.57 52.89 53.52 54.21 54.66 54.92 55.02 55.14 55.26 55.61 55.28 55.19 53.97 54.80 55.36 55.38 55.47 54.89 56.49 56.56 55.13 51.70 52.05 52.21 52.12 50.35 49.50 49.24 47.53 48.11 47.71 47.68 48.12 45.30 45.40 44.15 43.76 44.35 43.23 43.96 43.18 41.97 41.15 42.58 41.39 40.27 37.72 51.21 51.36 46.82 49.46 53.76 56.12 56.08
52.75 53.00 53.73 53.97 54.30 54.52 54.74 54.94 54.96 55.22 55.89 54.88 53.67 54.69 55.27 55.39 55.16 54.46 56.00 55.99 55.66 54.51 53.16 54.56 53.93 53.56 53.27 53.06 52.06 48.26 48.23 46.80 49.09 46.48 45.93 45.10 43.82 42.84 41.51 41.28 45.66 42.54 44.30 45.10 44.20 44.27 49.75 51.63 50.53 52.58 53.03 53.38 55.21 55.76
52.69 53.34 53.71 54.08 54.38 54.38 54.56 54.80 54.78 55.10 55.91 54.35 53.53 54.31 54.89 55.06 54.88 53.80 54.61 53.92 55.57 54.32 53.28 53.59 52.28 54.62 55.51 53.87 53.99 50.87 49.80 48.68 48.15 48.80 48.45 46.22 43.31 44.56 42.75 42.96 43.04 45.12 45.98 45.94 45.65 47.36 48.74 50.76 52.57 53.19 53.98 54.29 55.39 56.42
53.29 53.56 53.80 54.00 54.16 54.36 54.42 54.68 54.56 54.90 55.61 53.60 53.48 53.85 54.56 54.96 54.29 53.72 54.85 54.05 55.53 52.48 50.23 50.92 55.24 53.60 55.17 56.14 54.67 53.49 51.37 49.50 49.34 49.49 47.70 46.91 45.98 45.44 44.72 44.81 44.64 47.42 46.75 45.41 45.53 47.55 49.07 50.12 51.05 50.77 54.30 55.66 55.39 55.75
52.61 53.03 53.64 53.68 53.84 53.88 54.22 54.72 54.54 54.60 55.31 52.69 53.35 53.95 54.17 54.27 53.45 53.51 54.81 54.99 55.26 54.47 50.56 50.97 52.70 53.67 55.03 55.66 54.68 54.38 53.39 52.20 51.52 50.11 48.52 46.00 47.30 47.01 46.89 46.91 46.84 48.91 46.44 47.17 46.12 47.91 49.09 48.68 50.92 51.54 53.10 54.62 55.74 54.32
52.77 53.23 53.47 53.67 53.87 53.76 54.06 54.42 54.21 54.58 54.64 52.25 53.06 53.43 53.61 53.20 52.75 56.42 54.34 56.43 55.79 55.85 53.60 48.06 53.11 52.85 54.35 54.83 54.25 53.19 52.63 51.47 51.53 50.55 47.69 47.69 46.45 46.96 46.08 45.84 47.74 48.29 48.60 48.55 48.66 50.27 50.14 50.73 51.90 52.24 51.01 52.38 53.93 54.55
53.27 53.36 53.52 53.68 53.70 53.96 54.02 53.88 53.95 54.86 52.73 52.16 52.70 52.81 52.68 52.21 53.56 55.21 53.34 55.75 52.94 56.82 54.67 49.21 49.58 53.67 54.05 53.58 53.03 53.18 52.32 50.57 51.28 48.74 48.31 48.18 46.77 46.93 45.93 44.65 49.60 49.79 50.13 50.50 51.05 51.33 49.96 51.45 49.86 52.46 52.17 51.76 52.21 53.62
53.10 53.19 53.24 53.56 53.80 53.94 53.74 53.71 54.26 54.01 51.72 51.89 52.29 52.31 52.21 52.50 52.79 55.72 57.03 53.04 54.33 56.28 54.28 48.76 49.31 50.53 53.31 51.74 51.05 51.47 51.73 51.52 48.58 47.50 47.23 46.46 45.18 43.85 41.18 46.54 48.84 49.76 50.12 50.27 50.75 51.38 51.10 51.78 52.40 52.47 53.41 52.70 51.32 51.25
53.03 53.07 53.10 53.07 53.24 53.31 53.37 53.96 54.10 51.68 51.20 51.75 52.13 52.53 54.65 55.56 55.75 56.36 55.19 54.98 57.75 56.47 52.52 50.96 48.16 46.75 53.28 51.52 51.53 51.18 50.49 48.41 48.70 47.46 46.88 46.51 41.18 36.75 45.42 46.62 49.20 49.84 50.01 50.20 50.21 50.62 50.15 49.65 50.45 51.17 51.58 52.07 51.69 51.56
53.04 52.93 53.04 52.87 52.91 53.15 53.78 53.01 50.88 50.86 51.14 51.91 52.76 55.01 53.51 56.00 57.00 56.93 55.43 52.70 53.92 55.02 53.28 50.83 50.95 48.84 51.80 50.86 49.38 49.97 49.00 47.30 44.94 46.08 46.78 44.92 43.71 46.68 47.01 48.90 52.16 51.29 51.00 51.13 49.01 48.19 48.00 48.47 49.28 50.11 50.59 51.68 52.31 52.28
52.41 52.04 51.36 50.95 50.73 50.38 50.27 50.74 51.52 51.62 51.97 53.35 53.95 53.71 54.33 54.45 56.43 54.23 51.56 49.98 51.04 50.23 51.96 52.10 51.11 49.83 52.37 49.49 48.46 48.78 47.08 46.66 43.00 44.43 44.59 43.62 43.18 47.06 49.55 48.65 50.88 52.45 52.16 51.73 51.65 51.82 51.28 50.50 50.58 50.31 50.29 50.94 51.70 52.05
50.59 50.48 50.24 49.85 50.29 50.46 51.36 51.49 51.15 50.92 52.64 51.79 52.55 52.49 55.03 53.61 50.87 48.92 48.43 49.27 48.83 48.13 50.05 49.94 50.11 51.60 50.13 51.91 49.96 48.10 45.93 45.97 40.53 46.81 44.24 41.44 46.75 49.98 49.68 49.23 49.95 51.31 52.30 51.99 52.49 52.69 52.39 51.59 51.87 51.79 51.49 51.80 52.11 52.39
50.92 51.03 51.04 50.82 50.53 50.50 50.52 51.58 51.55 51.32 51.04 53.81 53.86 51.92 51.02 49.10 41.59 43.08 42.80 46.86 47.23 49.40 49.60 49.04 48.50 50.72 49.53 50.92 48.14 47.60 43.52 43.04 47.12 44.02 42.48 44.90 49.49 49.97 51.05 51.22 50.43 51.36 51.60 51.94 52.61 53.03 52.55 52.39 52.61 52.07 51.99 52.40 52.54 52.59
50.80 51.14 51.31 51.24 51.41 51.52 51.56 50.61 51.53 51.58 51.15 51.04 48.77 35.99 45.45 44.39 45.91 46.94 47.82 49.91 52.58 51.76 50.78 50.99 48.46 50.13 49.45 48.03 47.43 43.20 44.58 46.19 41.50 39.43 41.15 48.08 51.31 51.57 51.17 51.98 51.11 50.08 51.27 52.04 52.25 52.82 52.74 52.54 51.95 52.40 52.42 52.90 52.75 51.99
50.89 51.32 51.55 51.19 51.69 51.50 51.96 50.40 50.66 51.77 51.97 49.07 50.01 41.06 46.00 49.87 50.43 51.61 51.90 51.66 52.91 52.76 50.99 49.29 48.36 49.82 47.28 45.68 46.64 44.32 41.79 40.31 42.17 41.85 46.62 50.54 53.01 51.99 51.00 51.30 51.82 51.59 51.83 51.82 52.17 52.03 52.04 51.84 51.63 50.57 50.85 50.83 50.32 50.74
51.35 51.35 50.58 51.21 51.28 51.36 50.58 50.15 51.01 52.70 51.75 49.11 48.72 47.65 49.53 48.07 48.85 50.46 51.29 52.08 52.48 51.73 51.32 51.88 47.47 46.13 45.35 46.17 43.28 42.59 41.65 40.68 44.52 47.94 50.82 51.23 51.32 51.23 51.80 51.83 51.84 52.26 52.07 51.16 50.86 51.02 50.49 49.58 48.80 48.96 49.46 49.59 49.54 49.73
51.15 51.18 50.99 50.93 50.91 50.98 50.14 50.97 52.83 51.24 49.31 48.15 46.75 50.21 49.38 48.79 48.28 50.09 51.89 53.46 52.91 51.58 49.86 49.25 45.61 44.62 45.82 44.53 43.04 46.02 44.39 47.72 49.94 50.30 50.42 51.36 52.89 52.85 51.84 51.91 51.51 51.31 50.79 50.38 49.73 49.44 49.17 49.24 49.51 49.22 47.76 48.25 48.68 48.52
50.30 50.97 51.19 51.42 50.80 51.55 52.43 50.84 50.02 50.16 47.49 49.49 46.85 48.48 49.35 50.80 48.75 50.19 53.77 52.25 51.75 50.71 48.88 48.05 47.80 44.25 43.55 42.25 43.94 47.34 48.85 51.31 51.20 51.07 51.15 50.87 51.35 52.12 51.60 51.34 50.98 50.82 50.68 50.10 49.99 49.06 48.50 48.58 48.54 47.92 48.16 47.94 47.90 48.64
51.52 51.70 52.01 51.90 50.98 48.02 47.12 50.20 50.49 44.48 46.40 49.49 50.46 50.63 50.16 50.66 51.37 51.74 52.51 53.30 52.59 53.97 52.20 49.52 47.46 45.18 47.21 48.57 49.30 51.09 51.08 49.85 50.51 52.13 51.24 52.62 52.17 51.19 51.44 51.61 50.81 50.36 49.92 49.54 48.85 48.25 48.80 49.16 48.51 48.10 48.63 48.16 47.23 48.01
51.53 51.78 52.12 52.07 51.04 47.21 45.56 47.85 52.44 49.13 47.73 50.35 50.15 48.98 49.61 49.95 51.20 51.57 52.16 52.32 52.59 52.53 51.27 48.97 49.67 51.71 52.21 54.55 54.03 54.08 54.61 53.98 49.57 49.33 51.92 51.65 49.73 49.41 49.89 50.48 50.09 50.22 49.69 49.51 49.21 46.33 47.86 47.34 47.84 47.82 47.95 47.92 47.39 47.51
50.81 51.60 51.07 50.26 49.07 47.63 46.41 46.73 48.09 50.04 51.18 49.92 51.33 50.25 50.65 50.83 50.21 51.39 52.20 53.69 53.25 53.00 51.95 53.95 54.56 56.18 58.75 55.83 54.84 53.36 54.06 54.13 53.74 55.19 55.92 50.27 48.01 48.18 47.62 48.53 49.00 49.02 47.82 47.27 47.45 47.05 45.85 47.23 47.60 48.07 47.94 47.92 48.42 49.10
51.06 51.76 50.39 50.34 49.35 49.46 48.03 49.46 46.56 48.78 47.55 49.12 48.01 48.99 48.05 48.05 49.57 50.68 52.02 52.41 52.38 54.45 55.01 55.77 56.02 56.05 56.71 57.35 57.77 56.66 56.22 56.15 55.83 54.92 49.45 48.46 46.34 47.66 46.59 47.42 45.90 45.98 47.67 48.22 48.25 48.05 47.88 48.55 48.57 48.37 48.43 49.04 46.92 50.20
49.85 50.19 49.78 50.29 48.59 45.12 44.01 51.67 48.62 50.19 46.59 48.34 48.23 46.37 47.03 47.64 49.15 51.45 49.25 51.36 53.07 55.16 55.59 56.62 57.00 57.14 56.90 57.66 57.35 57.44 57.26 56.08 54.80 54.21 53.12 51.95 51.64 49.21 47.39 46.91 47.08 46.58 46.05 47.09 48.56 49.10 48.99 46.21 45.87 48.26 49.43 48.89 49.61 50.05
49.85 49.01 46.48 45.18 44.76 40.22 47.99 47.48 50.33 49.12 48.16 47.45 46.69 45.88 47.09 49.15 51.97 50.10 49.07 51.76 54.57 55.85 55.86 56.10 56.61 56.39 56.86 56.58 55.89 56.19 56.52 56.05 55.28 54.45 52.94 50.54 49.67 49.85 49.10 46.74 47.36 48.70 48.16 48.21 48.05 48.32 48.63 48.05 46.28 48.33 49.19 49.02 49.04 49.08
43.43 42.40 43.84 36.22 46.60 45.15 44.93 46.28 46.50 46.75 45.16 47.01 46.01 47.22 49.17 51.66 48.71 48.32 48.76 51.73 53.42 55.42 56.13 56.55 56.55 56.25 54.71 55.40 56.38 56.67 55.12 52.02 51.68 51.77 51.65 52.66 51.44 48.10 47.14 47.88 47.87 49.09 49.59 47.28 47.06 47.78 48.17 49.35 49.26 49.03 49.01 48.67 48.68 48.57
37.99 43.86 40.47 44.28 45.06 44.84 45.37 44.67 46.00 45.97 46.57 45.71 46.43 49.41 50.69 48.96 46.24 46.10 50.14 53.53 54.43 55.31 55.76 55.33 55.75 54.31 54.78 56.46 55.61 56.27 56.43 51.80 49.67 49.91 48.98 50.69 49.55 47.10 46.20 45.55 46.55 46.97 48.60 49.73 49.45 48.91 49.76 49.82 49.49 48.89 48.61 47.79 41.80 47.35
37.22 41.70 46.78 49.30 47.41 47.16 46.31 47.57 47.08 46.41 45.27 45.47 49.03 48.41 47.83 43.88 44.76 50.55 54.13 55.34 55.41 56.79 57.10 57.11 56.17 55.03 54.35 54.70 57.05 58.00 54.43 52.45 51.19 50.57 48.69 50.06 50.04 50.21 49.63 49.01 49.05 50.37 50.87 51.20 51.58 51.31 50.56 50.24 49.46 49.22 48.98 49.48 49.34 48.92
44.57 45.35 42.73 46.82 46.60 47.67 45.23 46.65 46.39 46.11 47.60 50.41 50.44 46.45 45.24 46.06 48.42 53.91 55.52 56.62 56.19 54.48 53.92 54.32 54.30 53.90 53.51 53.78 56.32 53.00 49.60 50.29 50.33 50.67 50.74 51.15 51.11 51.38 52.60 52.64 51.63 42.53 51.19 51.96 52.08 52.10 51.97 51.68 50.77 50.03 49.67 49.53 49.94 50.20
42.54 47.21 46.86 44.21 46.35 46.87 47.04 46.66 47.45 50.28 50.04 51.30 48.96 48.12 49.64 52.82 54.64 55.40 55.82 55.71 54.28 51.81 50.46 50.14 51.99 51.73 52.40 53.18 53.92 53.77 50.10 49.28 48.30 46.97 47.42 48.02 49.34 50.88 50.64 50.20 50.15 49.58 51.06 51.14 42.56 47.64 51.83 51.64 51.53 51.05 50.91 50.61 50.76 50.38
43.17 47.01 44.97 44.27 42.76 42.78 47.53 50.83 51.27 52.44 52.42 52.29 53.19 53.18 53.32 54.00 55.25 56.24 54.40 53.01 52.21 50.93 49.71 48.78 49.97 51.18 51.87 52.28 50.97 50.76 52.57 52.65 51.87 50.81 49.07 49.39 50.56 52.73 51.97 50.97 50.56 50.20 50.13 50.75 50.66 49.34 40.30 47.19 44.55 49.69 49.11 49.40 48.83 48.70
46.25 45.94 44.14 43.79 43.29 46.98 48.68 50.81 51.82 52.00 53.42 54.37 54.37 52.50 51.78 52.64 54.46 55.74 54.94 52.72 51.56 50.87 49.24 49.70 49.75 50.23 50.83 51.51 51.04 50.09 49.81 51.78 51.89 52.62 52.90 52.44 52.57 51.68 50.98 50.87 51.08 50.46 50.06 50.21 50.15 49.92 49.70 48.96 49.76 49.59 49.42 48.97 48.55 47.01
45.96 45.03 44.77 43.30 44.84 49.08 49.67 48.51 49.50 51.18 52.47 52.06 51.81 53.13 53.70 53.21 50.49 53.84 54.12 53.40 53.21 50.97 45.87 48.48 49.34 49.17 49.93 51.60 52.02 52.81 43.55 53.54 52.44 52.43 52.32 51.88 51.14 51.67 51.33 50.93 50.47 50.16 49.95 50.03 49.85 49.75 49.52 49.22 48.96 48.93 49.14 49.24 49.13 48.43
46.08 46.43 46.41 46.00 46.45 47.46 48.65 50.65 50.49 49.37 50.65 50.64 51.37 52.89 53.01 51.36 47.24 52.20 55.38 54.65 54.51 53.16 50.76 50.73 50.69 50.92 50.38 50.66 51.36 51.65 46.15 52.41 49.12 42.48 42.06 42.85 43.51 46.40 51.36 51.93 50.90 49.83 49.58 49.11 49.00 49.24 48.84 48.44 48.09 48.32 48.75 48.91 49.15 49.08
MSLP
1021.30 1021.00 1020.67 1020.27 1019.91 1019.55 1019.30 1019.11 1018.92 1018.58 1018.08 1017.82 1017.56 1017.30 1016.86 1016.47 1016.38 1016.24 1015.47 1015.38 1014.81 1014.24 1014.34 1014.19 1014.02 1014.12 1014.44 1014.42 1014.21 1014.63 1014.92 1014.88 1014.85 1014.90 1015.28 1015.87 1016.03 1016.36 1016.07 1015.71 1015.40 1015.31 1015.16 1015.05 1015.04 1014.49 1014.46 1014.44 1013.52 1013.89 1014.68 1014.22 1014.19 1014.30
1020.78 1020.46 1020.16 1019.83 1019.49 1019.16 1018.95 1018.83 1018.66 1018.34 1017.97 1017.72 1017.55 1017.31 1016.96 1016.56 1016.24 1016.18 1015.51 1015.41 1015.33 1014.44 1014.60 1014.57 1014.18 1014.16 1014.14 1014.08 1014.20 1014.91 1014.98 1015.15 1015.40 1015.65 1016.22 1016.55 1016.78 1017.00 1016.80 1016.18 1016.17 1016.19 1016.24 1015.84 1015.86 1015.50 1015.59 1015.56 1015.36 1015.08 1014.98 1015.13 1014.91 1015.16
1020.22 1019.86 1019.55 1019.32 1018.98 1018.74 1018.54 1018.42 1018.31 1018.09 1017.84 1017.66 1017.45 1017.30 1016.98 1016.57 1016.36 1016.31 1015.76 1015.76 1015.34 1014.78 1014.64 1014.22 1014.17 1014.26 1014.25 1014.36 1014.34 1014.39 1015.09 1015.51 1015.87 1016.20 1016.24 1016.81 1017.08 1017.47 1017.09 1016.86 1016.62 1016.62 1016.68 1016.29 1016.23 1016.33 1016.10 1015.85 1015.55 1015.46 1015.27 1015.39 1015.58 1015.87
1019.56 1019.20 1018.86 1018.66 1018.37 1018.19 1018.01 1017.95 1017.88 1017.79 1017.62 1017.54 1017.28 1017.18 1016.98 1016.57 1016.33 1016.34 1015.68 1015.86 1015.54 1015.15 1014.59 1014.55 1014.38 1014.38 1014.71 1014.47 1014.41 1014.48 1014.80 1015.76 1016.06 1016.40 1016.46 1016.82 1017.20 1017.90 1017.38 1017.36 1016.99 1016.98 1016.98 1016.61 1016.53 1016.68 1016.64 1016.53 1016.38 1016.31 1016.04 1016.22 1016.11 1016.69
1018.82 1018.55 1018.25 1018.01 1017.68 1017.52 1017.44 1017.46 1017.48 1017.43 1017.35 1017.34 1017.13 1016.98 1016.83 1016.51 1016.15 1016.21 1015.94 1015.91 1015.77 1015.60 1014.74 1014.66 1014.73 1014.88 1014.84 1014.81 1014.69 1014.86 1015.04 1015.49 1015.90 1016.30 1016.69 1017.55 1018.16 1018.16 1017.94 1017.64 1016.96 1017.06 1016.91 1016.68 1016.60 1016.99 1016.95 1017.05 1016.96 1016.71 1016.65 1016.73 1016.87 1017.26
1018.08 1017.78 1017.60 1017.39 1017.17 1016.93 1016.89 1017.01 1017.14 1017.16 1017.09 1017.00 1016.88 1016.80 1016.78 1016.36 1016.10 1016.07 1015.81 1015.82 1015.70 1015.53 1014.79 1014.67 1015.09 1014.87 1014.96 1015.09 1015.02 1015.32 1015.63 1015.97 1016.36 1016.67 1017.67 1018.40 1019.02 1018.93 1018.06 1017.46 1017.19 1017.27 1017.30 1017.30 1017.11 1017.24 1017.24 1017.28 1017.24 1017.00 1016.93 1017.34 1017.44 1017.73
1017.52 1017.20 1017.02 1016.92 1016.75 1016.52 1016.44 1016.59 1016.75 1016.82 1016.88 1016.73 1016.61 1016.60 1016.72 1016.47 1016.04 1016.04 1015.95 1015.90 1015.85 1015.61 1014.97 1014.90 1014.73 1015.00 1015.13 1015.24 1015.61 1015.73 1016.16 1016.50 1016.65 1017.52 1018.15 1018.53 1019.12 1018.97 1018.36 1017.52 1016.88 1017.15 1017.32 1017.39 1017.34 1017.22 1017.16 1017.24 1017.44 1017.47 1017.29 1017.40 1017.63 1017.90
1017.14 1016.84 1016.64 1016.48 1016.45 1016.31 1016.18 1016.26 1016.42 1016.58 1016.57 1016.49 1016.33 1016.29 1016.17 1016.17 1016.16 1015.86 1015.67 1015.77 1015.80 1015.21 1015.03 1014.71 1014.76 1015.05 1015.26 1015.22 1015.74 1016.50 1016.33 1016.70 1017.49 1018.02 1018.58 1018.73 1019.36 1019.28 1018.16 1017.18 1017.09 1017.14 1017.23 1017.21 1017.32 1017.33 1017.28 1017.44 1017.46 1017.49 1017.52 1017.48 1017.48 1017.79
1016.83 1016.58 1016.35 1016.29 1016.30 1016.14 1015.93 1015.96 1016.22 1016.36 1016.28 1016.25 1016.06 1015.97 1015.99 1015.76 1015.75 1015.67 1015.80 1015.78 1015.54 1015.42 1014.86 1014.70 1014.36 1014.74 1015.28 1015.74 1016.16 1016.64 1016.70 1016.94 1018.11 1018.08 1018.68 1019.06 1019.22 1018.43 1017.04 1016.81 1016.92 1017.03 1017.04 1017.08 1017.35 1017.39 1017.36 1017.45 1017.71 1017.81 1017.74 1017.66 1017.63 1017.87
1016.57 1016.32 1016.14 1016.13 1016.19 1016.04 1015.81 1015.88 1016.12 1016.11 1015.93 1015.97 1015.98 1015.72 1015.57 1015.63 1015.71 1015.82 1016.00 1015.70 1015.28 1014.99 1014.94 1014.34 1014.64 1014.60 1015.11 1015.70 1016.05 1016.48 1016.84 1017.31 1017.58 1018.46 1018.79 1018.48 1017.68 1016.87 1016.69 1016.54 1016.52 1016.79 1017.00 1017.11 1017.11 1017.25 1017.30 1017.32 1017.57 1017.79 1018.02 1018.24 1018.34 1018.37
1016.52 1016.32 1016.21 1016.20 1016.12 1016.02 1015.91 1015.89 1015.94 1015.85 1015.61 1015.88 1015.59 1015.42 1015.55 1015.62 1015.44 1015.47 1015.37 1015.16 1014.91 1014.47 1014.25 1014.14 1014.29 1014.48 1015.36 1015.20 1015.72 1016.57 1016.75 1017.35 1017.42 1017.96 1017.93 1017.41 1016.47 1015.74 1015.73 1016.12 1016.38 1016.57 1016.76 1016.97 1017.08 1017.22 1017.34 1017.48 1017.63 1017.81 1018.02 1018.20 1018.29 1018.35
1016.56 1016.42 1016.30 1016.30 1016.16 1016.02 1015.98 1015.83 1015.69 1015.52 1015.61 1015.75 1015.44 1015.72 1015.34 1015.28 1015.20 1015.10 1014.82 1014.73 1014.30 1013.50 1013.79 1013.84 1014.23 1014.46 1015.28 1015.50 1015.42 1016.49 1016.45 1017.13 1016.96 1017.46 1017.20 1016.26 1015.00 1014.89 1015.21 1015.55 1015.95 1016.34 1016.56 1016.71 1016.91 1017.02 1017.23 1017.44 1017.66 1017.87 1018.06 1018.22 1018.37 1018.54
1016.39 1016.23 1016.09 1016.15 1015.99 1015.94 1015.89 1015.68 1015.50 1015.44 1015.65 1015.60 1015.42 1015.08 1014.84 1015.19 1014.83 1014.28 1013.63 1013.36 1013.04 1012.88 1013.24 1013.55 1014.08 1014.34 1015.36 1015.30 1015.53 1015.76 1016.06 1016.37 1016.87 1016.52 1015.74 1014.57 1014.08 1014.36 1014.73 1015.07 1015.48 1015.92 1016.31 1016.57 1016.74 1016.94 1017.11 1017.30 1017.62 1017.82 1018.01 1018.28 1018.49 1018.68
1016.28 1016.00 1015.90 1015.79 1015.66 1015.69 1015.64 1015.54 1015.42 1015.63 1015.69 1015.14 1014.90 1014.99 1014.44 1014.05 1013.56 1012.71 1012.27 1011.99 1011.90 1012.04 1012.35 1012.83 1013.56 1013.91 1014.61 1014.76 1015.12 1015.23 1015.99 1016.07 1015.70 1015.10 1013.88 1013.08 1013.00 1013.25 1013.97 1014.51 1014.95 1015.25 1015.69 1016.02 1016.38 1016.62 1016.89 1017.21 1017.61 1018.01 1018.28 1018.61 1018.74 1018.95
1016.05 1015.83 1015.56 1015.50 1015.47 1015.35 1015.30 1015.37 1015.45 1015.50 1015.32 1014.68 1014.44 1013.92 1013.27 1012.56 1012.51 1012.26 1012.16 1012.07 1011.98 1012.03 1012.19 1012.75 1013.35 1013.54 1013.98 1014.32 1014.65 1014.99 1015.26 1014.62 1014.03 1012.98 1012.32 1011.85 1012.24 1012.84 1013.45 1014.02 1014.44 1014.86 1015.30 1015.74 1016.17 1016.47 1016.88 1017.27 1017.62 1018.09 1018.53 1018.82 1019.02 1019.19
1015.74 1015.36 1015.22 1015.29 1015.28 1015.26 1015.22 1015.19 1015.38 1015.38 1014.97 1014.36 1013.89 1013.10 1012.54 1012.32 1011.90 1011.87 1011.77 1011.67 1011.91 1011.98 1012.18 1012.23 1012.68 1012.99 1013.12 1013.30 1013.72 1013.40 1013.32 1012.63 1011.84 1011.66 1011.22 1011.63 1012.09 1012.47 1012.95 1013.50 1014.03 1014.55 1015.14 1015.63 1016.11 1016.57 1017.12 1017.58 1017.98 1018.36 1018.84 1018.99 1019.04 1019.17
1015.54 1015.28 1015.20 1015.24 1015.16 1015.15 1015.29 1015.34 1015.24 1014.84 1014.15 1013.64 1012.84 1012.44 1012.20 1011.93 1011.62 1011.37 1011.42 1011.34 1011.65 1011.64 1011.30 1011.70 1011.88 1012.10 1012.76 1012.32 1012.24 1012.13 1011.40 1010.55 1010.38 1010.54 1010.84 1011.31 1011.64 1012.07 1012.69 1013.27 1013.80 1014.34 1014.87 1015.40 1016.00 1016.56 1017.05 1017.58 1018.03 1018.39 1018.70 1019.08 1019.18 1019.24
1015.37 1015.20 1015.30 1015.38 1015.14 1015.12 1015.20 1015.08 1014.62 1014.11 1013.47 1012.65 1012.31 1011.62 1011.71 1011.38 1011.17 1011.08 1011.18 1011.39 1011.42 1011.23 1011.18 1010.92 1011.24 1011.39 1011.02 1010.79 1010.55 1010.29 1010.08 1009.92 1010.09 1010.23 1010.51 1010.96 1011.50 1011.93 1012.40 1012.83 1013.49 1014.10 1014.74 1015.33 1015.88 1016.50 1017.10 1017.58 1017.94 1018.28 1018.79 1019.20 1019.31 1019.34
1015.03 1015.10 1015.19 1015.22 1015.25 1015.25 1014.84 1014.57 1014.31 1013.44 1012.52 1012.17 1011.75 1011.54 1011.28 1010.89 1010.66 1010.66 1010.78 1010.94 1011.10 1011.17 1010.82 1010.64 1010.32 1009.88 1009.54 1009.51 1009.38 1009.25 1009.38 1009.49 1009.59 1009.81 1010.32 1010.80 1011.25 1011.70 1012.06 1012.55 1013.31 1014.00 1014.54 1015.07 1015.70 1016.18 1016.62 1017.18 1017.51 1018.11 1018.66 1019.00 1018.91 1019.12
1014.75 1014.75 1014.78 1014.85 1015.17 1014.93 1014.40 1014.00 1013.98 1013.08 1012.02 1011.50 1011.34 1010.96 1010.70 1010.31 1010.23 1010.26 1010.38 1010.64 1010.92 1010.96 1010.33 1009.56 1008.78 1008.58 1008.55 1008.39 1008.59 1008.60 1008.65 1009.01 1009.57 1009.96 1010.07 1010.67 1011.34 1011.80 1012.42 1012.15 1012.64 1013.44 1014.25 1015.06 1015.71 1016.23 1016.63 1017.08 1017.60 1018.02 1018.35 1018.47 1018.50 1018.74
1014.52 1014.45 1014.56 1014.63 1014.82 1014.67 1014.14 1013.42 1013.02 1012.28 1011.51 1011.13 1010.62 1010.53 1010.06 1010.07 1009.90 1009.78 1009.82 1010.21 1010.30 1009.67 1009.00 1008.59 1008.20 1007.89 1007.81 1008.26 1008.56 1008.65 1008.59 1008.82 1008.89 1009.10 1009.22 1010.17 1011.08 1011.63 1011.46 1012.73 1012.70 1013.02 1013.68 1014.48 1015.24 1016.02 1016.40 1016.51 1016.97 1017.60 1018.15 1018.29 1018.42 1018.56
1014.32 1014.34 1014.50 1014.58 1014.37 1014.20 1013.78 1013.10 1012.62 1012.04 1011.70 1010.68 1010.57 1010.18 1009.78 1009.50 1009.26 1009.22 1009.62 1009.68 1009.09 1008.38 1008.30 1008.07 1008.02 1008.18 1008.16 1008.17 1008.24 1008.36 1008.44 1008.58 1008.78 1009.18 1009.57 1009.98 1010.44 1010.96 1011.84 1012.23 1012.78 1012.83 1013.30 1013.87 1014.56 1015.35 1015.84 1016.29 1016.66 1017.29 1017.66 1017.87 1018.23 1018.34
1014.25 1014.25 1014.11 1014.11 1013.98 1013.66 1013.13 1012.74 1012.20 1011.40 1010.87 1010.16 1010.07 1009.68 1009.33 1009.13 1009.04 1009.41 1009.08 1008.63 1008.22 1008.17 1008.23 1008.32 1008.27 1008.34 1008.30 1008.21 1008.22 1008.16 1008.22 1008.32 1008.40 1008.66 1008.95 1009.21 1009.84 1010.38 1010.76 1011.66 1012.28 1012.43 1013.09 1013.68 1014.21 1014.78 1015.32 1015.90 1016.35 1016.66 1016.97 1017.40 1017.59 1017.78
1013.92 1013.85 1013.72 1013.62 1013.55 1013.00 1012.57 1011.88 1011.42 1010.81 1010.28 1009.86 1009.50 1009.04 1008.84 1008.85 1009.16 1008.96 1008.39 1008.01 1007.88 1008.20 1008.32 1008.22 1008.28 1008.22 1008.16 1008.05 1007.93 1007.72 1007.78 1007.93 1008.01 1008.36 1008.60 1009.07 1009.28 1009.67 1010.04 1010.88 1011.60 1012.13 1012.39 1012.90 1013.70 1014.42 1014.99 1015.40 1015.68 1016.20 1016.40 1016.56 1016.82 1016.95
1013.94 1013.76 1013.55 1013.11 1012.80 1012.51 1011.66 1010.85 1010.36 1009.98 1009.39 1009.03 1008.96 1008.61 1008.49 1008.91 1008.65 1008.36 1007.92 1007.73 1007.88 1007.96 1008.06 1008.16 1008.22 1008.28 1008.14 1007.82 1007.76 1007.64 1007.66 1007.74 1007.76 1007.95 1008.39 1008.58 1008.95 1009.49 1010.08 1010.67 1011.46 1011.89 1012.32 1012.80 1013.22 1013.72 1014.26 1014.56 1014.96 1015.39 1015.68 1015.89 1015.96 1016.25
1013.40 1013.05 1012.93 1012.12 1011.77 1011.40 1010.59 1009.88 1009.44 1009.12 1008.79 1008.46 1008.39 1008.45 1008.56 1008.40 1008.00 1007.72 1007.62 1007.64 1007.72 1007.80 1007.89 1008.00 1008.13 1008.24 1008.08 1007.78 1007.47 1007.23 1007.24 1007.49 1007.68 1008.00 1008.54 1008.76 1008.85 1009.28 1010.08 1010.76 1011.69 1012.01 1012.22 1012.26 1012.44 1012.86 1013.20 1013.61 1014.03 1014.59 1014.92 1015.26 1015.68 1015.84
1012.98 1012.34 1011.97 1011.76 1011.29 1010.91 1010.25 1009.62 1009.27 1008.91 1008.42 1007.83 1007.63 1008.05 1008.11 1007.87 1007.56 1007.66 1007.61 1007.76 1007.88 1008.06 1008.12 1008.17 1008.18 1008.06 1007.83 1007.67 1007.44 1007.40 1007.67 1007.76 1007.84 1008.05 1008.60 1008.97 1009.41 1009.37 1009.94 1010.23 1010.42 1010.68 1011.35 1011.52 1011.64 1011.90 1012.21 1012.66 1013.18 1013.68 1014.05 1014.40 1014.80 1015.16
1012.31 1011.94 1011.55 1011.17 1010.88 1010.49 1009.92 1009.20 1008.63 1008.06 1007.66 1007.60 1007.57 1007.40 1007.44 1007.19 1007.26 1007.54 1007.78 1008.09 1008.21 1008.25 1008.15 1008.09 1007.98 1007.82 1007.62 1007.62 1007.54 1007.76 1008.14 1008.26 1008.35 1008.78 1009.22 1009.50 1009.76 1009.94 1010.01 1010.16 1010.51 1010.79 1010.72 1010.78 1011.01 1011.28 1011.56 1011.91 1012.42 1012.89 1013.36 1013.68 1014.03 1014.51
1012.06 1011.66 1011.43 1010.75 1010.32 1009.82 1009.25 1008.75 1008.14 1007.76 1007.96 1007.58 1007.20 1007.20 1007.26 1007.30 1007.57 1007.80 1008.06 1008.18 1008.30 1008.22 1007.96 1007.85 1007.66 1007.60 1007.54 1007.62 1007.75 1007.92 1008.20 1008.34 1008.50 1009.00 1009.27 1009.40 1009.49 1009.44 1009.78 1010.13 1010.26 1010.40 1010.35 1010.42 1010.88 1010.97 1011.17 1011.41 1011.90 1012.29 1012.72 1013.13 1013.55 1013.97
1011.39 1011.23 1010.82 1010.30 1009.71 1009.01 1008.28 1008.01 1007.65 1007.59 1007.57 1007.43 1007.36 1007.38 1007.54 1007.72 1007.91 1008.18 1008.22 1008.17 1008.13 1008.05 1008.06 1007.98 1007.78 1007.58 1007.57 1007.70 1007.94 1008.18 1008.33 1008.38 1008.48 1008.49 1008.67 1008.67 1008.63 1008.83 1009.23 1009.47 1009.55 1009.70 1009.86 1010.01 1010.30 1011.09 1011.76 1011.88 1012.41 1012.55 1012.75 1012.99 1013.30 1013.52
1010.55 1010.52 1010.17 1009.63 1008.92 1008.21 1007.76 1007.56 1007.50 1007.43 1007.36 1007.28 1007.38 1007.47 1007.48 1007.63 1007.80 1008.07 1008.09 1008.06 1008.02 1007.87 1007.70 1007.61 1007.62 1007.63 1007.70 1007.82 1007.93 1008.09 1008.26 1008.50 1008.60 1008.62 1008.56 1008.52 1008.56 1008.70 1008.88 1009.16 1009.33 1009.51 1009.65 1009.78 1010.06 1010.53 1010.99 1011.33 1011.54 1011.75 1011.98 1012.25 1012.55 1012.84
1009.70 1009.54 1009.22 1008.67 1007.95 1007.24 1007.25 1007.15 1006.83 1006.90 1007.19 1007.42 1007.48 1007.53 1007.50 1007.46 1007.41 1007.69 1007.69 1007.73 1007.59 1007.46 1007.50 1007.46 1007.41 1007.46 1007.76 1007.86 1008.04 1008.10 1008.40 1008.00 1008.12 1008.32 1008.54 1008.60 1008.71 1008.85 1009.10 1009.31 1009.46 1009.56 1009.69 1009.71 1009.96 1010.25 1010.64 1010.76 1010.96 1011.17 1011.35 1011.68 1012.01 1012.40
1008.82 1008.69 1008.50 1008.08 1007.26 1006.70 1006.69 1006.66 1006.79 1007.04 1007.13 1007.17 1007.22 1007.20 1007.19 1007.25 1007.30 1007.11 1007.46 1007.52 1007.51 1007.46 1007.42 1007.44 1007.50 1007.59 1007.72 1007.78 1007.75 1007.70 1008.10 1007.93 1008.02 1008.16 1008.40 1008.61 1008.74 1008.92 1009.03 1009.21 1009.38 1009.53 1009.62 1009.69 1009.88 1010.08 1010.36 1010.62 1010.78 1010.99 1011.22 1011.48 1011.79 1012.10
Wind_Speed
13 16 15 14 13 11 10 11 11 11 12 11 13 14 13 13 13 5 1 2 2 2 2 2 2 2 2 0 2 2 3 2 1 3 0 2 1 1 1 1 1 1 1 2 2 3 1 13 4 4 5 6 3 8
15 16 15 14 13 11 10 10 10 10 10 9 12 13 12 11 12 7 1 2 3 1 3 2 2 2 2 2 1 2 2 1 1 3 1 2 2 2 2 2 1 1 3 1 3 4 4 6 5 7 4 7 3 5
16 16 16 15 13 11 10 10 10 9 9 8 10 12 11 9 10 8 1 3 1 1 2 2 3 3 3 4 3 2 2 3 3 2 3 2 2 2 2 1 1 2 1 1 3 3 4 8 7 8 8 1 6 10
15 17 16 16 14 12 10 10 10 8 8 7 8 10 10 9 9 7 1 2 1 2 2 3 3 3 4 5 4 3 5 5 5 1 2 2 1 3 1 1 2 1 2 2 2 2 3 4 8 7 7 5 11 10
17 17 17 16 14 12 10 10 9 8 6 6 7 8 9 8 8 1 0 2 1 3 2 3 0 3 4 4 11 9 6 4 2 2 2 3 2 3 1 2 2 2 2 1 2 2 2 3 6 5 4 6 8 11
15 14 14 14 12 10 9 9 8 8 6 6 7 8 8 6 6 2 1 2 2 2 1 4 2 1 3 5 10 10 6 4 3 2 3 3 3 3 1 2 3 3 3 2 2 3 4 4 6 6 5 4 4 6
12 11 10 10 8 8 7 7 7 7 7 7 7 7 8 5 1 2 1 2 0 2 1 3 3 2 1 2 3 3 4 3 3 3 2 1 2 3 1 3 6 6 3 3 1 2 5 7 5 7 6 4 5 5
9 8 8 6 7 6 6 6 6 7 8 7 7 8 8 3 3 2 1 1 4 2 1 2 2 2 1 2 2 3 2 1 4 2 2 1 2 2 3 4 4 3 1 1 4 5 6 3 5 7 6 5 3 4
8 7 7 6 6 6 6 5 6 8 7 8 8 7 2 1 2 2 4 3 1 1 2 2 4 3 2 2 2 2 1 2 1 1 2 2 2 3 4 6 9 6 4 6 5 4 5 6 4 4 3 4 4 5
7 6 6 5 5 6 4 5 7 7 7 8 3 3 2 2 1 4 1 2 2 1 1 3 1 3 2 2 2 2 2 2 1 2 2 2 3 5 6 7 7 9 5 7 5 2 2 3 4 4 4 4 3 4
8 6 5 4 1 1 3 5 6 6 1 2 2 1 2 2 2 1 2 3 2 3 4 2 4 4 2 2 3 1 2 1 1 2 2 1 3 4 8 10 9 7 8 8 3 3 2 1 3 3 3 3 4 4
6 5 4 5 5 4 4 3 2 2 0 1 2 1 2 2 1 3 3 2 4 4 4 4 4 2 3 1 2 2 1 2 1 3 2 3 4 6 9 12 12 11 10 9 8 7 7 6 5 5 4 3 2 2
7 7 7 8 8 7 5 2 3 5 4 1 1 2 1 2 2 5 7 4 3 5 6 5 4 3 3 2 3 2 4 2 3 3 3 5 1 4 9 8 11 11 10 8 8 7 6 7 7 7 5 4 2 1
8 9 8 8 8 7 6 3 1 3 2 2 3 2 4 4 5 5 4 2 2 3 8 6 5 2 2 3 2 3 3 3 3 3 5 3 8 10 10 9 9 13 12 11 9 7 6 6 6 5 3 3 2 2
9 9 10 7 6 7 5 4 0 1 2 3 3 4 7 4 3 3 3 2 3 5 7 5 4 1 2 3 1 3 4 4 5 5 3 5 6 7 10 12 11 11 11 10 9 8 7 8 8 7 6 5 4 2
10 9 3 2 2 1 4 2 1 1 2 3 3 4 3 2 3 3 4 4 4 6 3 2 4 3 4 3 4 6 4 6 4 4 6 3 5 7 9 12 12 11 11 10 9 8 8 7 7 6 5 3 3 3
7 2 1 3 4 1 4 1 2 4 3 4 4 4 4 3 4 2 3 2 6 7 5 3 5 4 4 4 4 5 6 5 6 5 4 6 7 8 9 11 12 12 12 11 10 9 7 7 7 6 4 3 2 2
3 1 3 5 4 1 1 2 2 3 6 5 4 3 3 3 2 2 2 4 5 3 4 5 4 6 5 5 4 4 6 5 4 6 5 4 6 7 10 13 13 13 12 11 10 9 9 8 6 4 5 5 5 4
2 3 6 7 3 2 2 3 2 4 5 2 4 3 3 3 4 3 2 3 1 0 2 4 4 5 5 4 6 7 6 5 6 3 4 6 7 10 11 12 12 12 12 12 11 8 7 7 5 6 6 5 4 4
7 10 9 7 5 2 3 2 2 3 3 1 3 3 3 3 0 2 3 5 5 4 4 5 5 4 4 5 6 6 5 3 3 3 4 4 4 7 8 11 11 13 11 10 8 7 7 6 6 6 6 6 5 4
1 3 2 3 2 3 2 2 4 3 3 3 0 2 3 2 3 4 4 5 4 4 4 4 5 7 4 4 3 4 7 6 7 7 4 5 6 6 8 7 9 11 11 9 9 8 7 7 8 7 7 6 5 4
1 6 1 2 3 3 3 3 3 2 3 2 2 2 3 3 3 3 4 4 4 3 4 3 2 3 4 5 4 4 6 6 7 4 3 7 6 8 9 9 8 8 9 9 9 8 8 7 7 7 7 5 5 4
2 2 1 2 3 1 4 2 4 4 4 2 1 3 3 3 1 2 3 3 3 2 2 2 3 3 5 6 5 5 4 6 5 6 7 5 4 6 8 10 9 9 7 7 7 8 8 8 8 7 6 5 5 4
2 3 3 3 4 3 2 4 3 3 3 3 3 3 2 2 2 2 3 3 1 1 2 3 2 3 3 4 4 4 4 4 5 4 4 6 7 9 10 10 8 8 8 7 8 7 7 8 8 8 7 7 6 5
1 2 3 3 3 3 5 4 4 3 4 4 3 3 2 2 3 4 3 2 1 2 2 1 2 2 4 6 5 4 2 3 3 4 4 7 6 7 7 6 4 5 5 8 9 9 9 9 9 8 8 8 7 6
2 3 5 4 3 4 2 3 4 4 2 3 4 1 1 1 2 1 1 1 2 1 1 2 2 3 5 5 5 4 3 2 3 2 2 5 7 8 8 9 6 7 7 8 8 10 12 11 11 12 10 10 7 6
3 4 3 3 2 2 3 4 3 3 4 3 2 4 2 2 3 2 0 2 1 1 2 3 4 6 7 6 5 2 2 1 0 2 5 5 5 9 11 11 14 8 9 11 11 11 13 13 11 12 11 8 7 8
4 2 4 2 4 3 3 3 3 3 2 0 2 2 2 2 0 1 1 1 2 3 4 4 3 4 4 4 1 4 5 5 8 8 6 5 3 3 5 3 4 7 7 11 11 10 11 11 12 12 11 10 8 7
3 2 3 4 4 3 3 4 3 1 1 3 1 2 2 1 2 0 1 1 1 3 4 4 2 2 3 4 3 3 6 7 10 11 12 9 5 6 4 3 4 6 6 6 9 8 12 11 12 11 12 9 6 6
4 5 3 4 5 5 4 5 2 1 2 3 2 1 1 1 0 1 0 1 2 3 3 2 2 1 2 3 4 5 3 4 4 5 7 7 7 6 6 5 5 5 5 6 7 7 8 7 5 6 7 7 7 7
2 5 5 6 5 5 8 7 7 5 3 1 1 1 1 1 1 1 2 1 2 2 2 0 3 3 3 4 4 4 5 5 4 4 3 2 0 4 4 3 3 3 4 6 7 7 8 9 9 10 10 11 11 10
5 7 4 5 4 6 6 5 3 1 0 1 1 1 1 0 2 1 2 2 1 2 2 0 2 3 3 3 4 3 1 1 4 6 7 5 4 5 4 4 4 4 5 7 7 7 9 8 7 7 8 10 11 11
5 4 5 4 3 3 4 4 3 3 1 0 1 0 1 1 3 3 2 2 2 1 1 0 1 1 2 3 4 4 4 4 5 4 6 6 6 5 3 4 5 6 7 7 7 7 7 7 6 6 7 8 9 9
Wind_Direction
303 310 306 307 306 309 310 314 313 319 327 333 337 336 343 353 351 328 57 326 303 97 92 178 150 133 146 155 348 42 232 151 75 82 103 131 185 97 248 353 330 316 240 147 172 220 231 0 304 356 347 316 303 144
305 302 295 296 297 297 300 301 300 308 315 327 332 330 338 345 349 339 312 10 319 355 77 337 16 18 323 303 180 173 360 159 89 107 136 136 145 181 240 193 106 208 341 356 316 53 338 331 314 315 329 297 120 139
298 291 291 289 286 283 285 287 291 298 307 317 327 326 332 342 355 351 353 347 279 93 98 158 86 25 38 18 307 277 174 123 154 360 123 104 129 188 191 200 224 143 64 201 209 102 9 356 6 6 357 295 126 118
287 288 286 281 276 275 273 274 279 286 295 306 321 323 325 340 354 336 25 5 314 79 129 120 335 62 358 35 63 40 108 102 99 156 87 101 128 227 164 62 257 20 271 167 122 192 165 63 23 1 45 99 111 127
294 293 288 281 271 266 265 261 267 274 279 296 311 313 321 339 359 356 5 33 310 298 133 123 155 51 34 60 72 69 90 101 74 113 66 84 97 199 130 247 215 195 153 230 53 79 25 44 340 15 88 115 132 134
291 293 289 283 270 255 253 249 262 274 261 284 299 310 314 343 2 255 227 140 14 312 167 167 25 163 90 62 62 53 52 64 66 62 83 100 66 278 197 237 129 178 198 247 79 124 107 108 54 28 77 103 145 155
297 293 292 284 270 248 232 241 249 260 260 281 298 310 310 325 9 256 13 30 163 276 145 135 172 89 35 60 55 47 49 61 39 94 74 98 113 318 206 224 159 167 165 154 159 180 98 53 49 33 42 58 104 118
305 308 304 292 264 234 231 236 253 243 266 287 303 303 306 260 241 206 100 123 200 104 307 161 134 205 14 126 130 1 72 70 41 91 142 90 125 344 253 220 182 172 185 170 98 72 81 87 50 33 35 36 47 74
314 313 304 286 262 247 230 247 239 255 282 299 305 288 194 149 184 89 116 146 54 292 181 201 181 197 133 93 76 125 355 81 23 86 83 256 57 230 240 180 183 187 186 148 114 84 66 61 76 73 39 19 16 41
324 322 318 291 262 256 234 224 254 279 305 311 239 204 149 103 352 139 167 203 204 109 177 224 116 150 199 156 117 148 34 78 192 75 173 226 259 259 235 206 184 174 160 153 142 127 87 55 54 59 69 80 46 11
7 21 27 22 45 334 286 286 290 315 21 214 192 142 70 334 181 79 212 214 174 209 187 148 200 141 164 176 135 318 134 125 220 122 269 240 260 215 182 191 192 183 181 188 183 155 179 179 163 131 120 86 54 35
328 324 323 308 314 321 321 330 294 171 215 20 79 103 148 144 108 207 210 177 220 222 165 170 150 92 124 173 144 152 138 190 216 147 234 250 242 205 184 192 191 192 191 196 206 215 214 212 203 200 187 173 130 76
330 316 294 281 286 290 297 307 13 102 130 204 182 123 114 143 118 209 190 198 220 173 168 164 136 119 144 148 92 175 189 194 146 205 242 239 211 202 199 194 192 193 199 210 217 220 221 222 205 207 206 190 191 154
326 324 311 286 274 279 280 258 49 156 251 206 165 323 208 181 233 207 209 203 161 169 149 142 113 130 114 147 133 189 87 180 226 231 232 225 215 208 192 190 184 192 194 205 211 202 194 182 177 170 163 129 140 101
320 317 308 285 281 281 229 198 148 224 237 190 186 222 216 230 258 251 242 262 175 153 142 125 100 176 121 132 173 125 171 233 231 232 227 232 217 192 183 183 187 179 175 171 168 159 153 153 155 141 131 122 112 104
328 318 199 121 4 243 171 124 136 219 231 204 225 242 203 237 224 195 209 229 154 151 129 110 130 168 174 170 180 205 200 221 227 213 231 194 211 198 187 179 177 172 171 165 164 159 155 156 158 149 149 141 108 95
321 245 84 11 338 168 155 197 193 221 240 215 232 231 249 283 258 244 219 182 155 169 168 152 187 183 117 200 214 191 213 214 222 237 228 213 217 203 181 172 172 169 167 164 157 158 156 148 149 162 167 141 136 135
243 142 44 356 356 146 209 217 234 229 240 224 235 215 204 235 233 213 206 157 160 207 160 192 113 201 198 194 210 225 240 256 250 256 242 220 210 188 177 173 169 171 166 164 164 154 152 154 162 160 149 149 140 128
232 298 302 315 328 283 228 196 225 251 239 239 244 230 239 257 237 258 211 171 191 48 176 185 210 201 214 213 241 250 248 230 250 227 231 218 206 187 180 167 164 165 168 166 162 167 160 167 165 156 161 172 158 152
280 283 280 265 188 239 230 203 226 253 253 238 226 219 228 229 310 195 181 178 175 192 210 221 224 219 216 227 216 243 258 250 166 227 238 193 185 166 194 173 168 168 162 159 162 145 147 149 162 165 177 181 172 167
232 169 124 157 168 233 267 222 233 241 286 259 240 221 244 215 225 211 191 164 188 208 221 215 232 241 240 263 242 247 247 211 213 209 211 174 181 192 152 192 166 162 165 164 163 168 176 178 175 175 184 196 202 213
206 166 157 196 229 190 261 213 275 313 254 269 257 225 245 223 217 188 127 190 226 221 210 231 256 298 298 294 301 253 266 251 235 222 179 123 154 159 180 177 171 166 171 170 167 174 187 184 172 182 196 207 198 212
284 176 162 190 221 197 269 206 245 211 242 227 215 234 218 225 165 147 229 227 258 219 203 234 252 256 276 296 300 293 270 252 238 215 205 192 175 153 147 178 186 160 160 163 172 187 185 176 176 188 192 198 214 211
241 184 197 192 178 246 230 229 218 244 234 232 224 253 209 197 143 212 244 225 182 169 213 230 229 285 269 259 269 287 285 239 239 221 195 173 165 180 170 168 167 175 174 162 177 184 181 183 169 191 202 208 210 217
176 257 145 255 209 231 221 224 217 219 244 201 222 247 176 165 206 213 236 269 229 222 225 205 239 246 282 293 283 278 234 224 233 239 201 209 173 135 143 141 129 153 153 158 174 182 187 186 182 198 205 212 210 215
209 213 180 207 196 226 247 253 213 212 259 224 222 238 131 256 255 234 254 210 223 233 240 245 287 295 276 261 289 311 322 187 153 196 167 180 158 132 138 141 162 209 200 198 176 187 190 186 189 198 208 212 207 233
237 248 213 235 273 269 265 252 249 250 236 252 178 169 181 219 208 213 288 211 275 21 326 296 278 273 280 289 285 298 17 80 316 130 119 108 139 155 163 175 194 210 188 198 197 196 191 188 192 200 212 213 214 213
253 268 221 142 211 226 276 284 265 240 256 240 188 182 277 259 37 141 181 81 347 315 304 303 279 265 275 289 276 118 85 92 90 87 78 63 57 164 168 176 232 212 215 202 200 197 199 197 198 201 208 216 212 206
234 237 224 236 227 237 233 227 249 160 237 244 278 249 287 8 32 86 96 359 329 310 325 339 339 341 57 74 93 116 137 144 142 154 160 174 182 181 165 213 238 216 212 184 192 202 200 196 196 199 208 215 212 196
232 193 222 232 218 223 233 210 252 313 269 285 285 240 221 229 220 88 306 314 324 331 327 293 297 314 66 83 107 115 144 173 192 199 197 209 212 198 194 207 200 181 177 177 169 159 119 155 143 180 190 192 196 192
159 185 211 234 251 247 247 254 258 268 267 306 35 268 296 357 185 200 247 302 297 309 335 269 170 194 177 165 169 163 174 196 219 238 264 323 116 170 174 170 152 147 158 163 165 177 181 192 199 204 202 202 198 197
191 202 206 215 234 231 224 227 235 224 75 179 225 220 182 80 36 319 191 220 306 5 40 195 183 185 207 204 189 209 248 226 225 230 239 234 223 177 163 176 166 162 164 159 160 161 177 182 179 192 194 196 192 191
205 211 224 262 252 220 176 181 152 151 172 81 38 103 118 148 169 236 175 229 309 356 44 252 225 190 179 212 216 217 230 272 275 224 186 185 173 165 193 201 193 194 188 182 177 174 176 181 187 189 193 194 194 202